Aswan, Egypt

1:55 AM EET on November 22, 2017 (GMT +0200)
Aswan

Weather History for HESN - January, 2014

Change the Weather History Date:

Sunday, January 26, 2014

  Actual Average Record
Temperature  
Mean Temperature 70 °F -  
Max Temperature 85 °F 74 °F 89 °F (2015)
Min Temperature 55 °F 52 °F 41 °F (2016)
Cooling Degree Days 5    
Growing Degree Days 20 (Base 50)    
Moisture  
Dew Point 37 °F    
Average Humidity 29    
Maximum Humidity 53    
Minimum Humidity 10    
Precipitation  
Precipitation 0.00 in 0.00 in - ()
Sea Level Pressure  
Sea Level Pressure 29.78 in    
Wind  
Wind Speed 5 mph ()    
Max Wind Speed 12 mph    
Max Gust Speed -    
Visibility 6.0 miles    
Events      
Averages and records for this station are not official NWS values.
T = Trace of Precipitation, MM = Missing Value Source: Averaged Metar Reports

Daily Weather History Graph

Daily Weather History Graph

Search for Another Location

Airport or City:

Trip Planner

Search our weather history database for the weather conditions in past years. The results will help you decide how hot, cold, wet, or windy it might be!

Date:

Astronomy

Jan. 26, 2014 Rise Set
Actual Time 6:32 AM EET 5:30 PM EET
Civil Twilight 6:08 AM EET 5:54 PM EET
Nautical Twilight 5:40 AM EET 6:22 PM EET
Astronomical Twilight 5:13 AM EET 6:49 PM EET
Moon 1:46 AM EET (1/26) 1:04 PM EET (1/26)
Length of Visible Light 11h 46m
Length of Day
10h 58m
Waning Crescent, 27% of the Moon is Illuminated
Jan 26
Waning Crescent
Jan 30
New
Feb 6
First Quarter
Feb 15
Full
Feb 22
Last Quarter

Hourly Weather History & Observations

Time (EET) Temp. Dew Point Humidity Pressure Visibility Wind Dir Wind Speed Gust Speed Precip Events Conditions
12:00 AM 62.6 °F 12.2 °F 14% 29.83 in - NNE 3.5 mph - N/A   Clear
1:00 AM 64.4 °F 17.6 °F 16% 29.83 in - North 2.3 mph - N/A   Clear
2:00 AM 60 °F 18 °F 10% 29.80 in 6 mi ENE 4.6 mph - -  
2:00 AM 60.8 °F 17.6 °F 19% 29.80 in - ENE 4.6 mph - N/A   Clear
3:00 AM 60.8 °F 32.0 °F 34% 29.80 in - ESE 2.3 mph - N/A   Clear
4:00 AM 60.8 °F 19.4 °F 20% 29.80 in - North 5.8 mph - N/A   Clear
5:00 AM 59 °F 20 °F 12% 29.81 in 6 mi North 6.9 mph - -  
5:00 AM 59.0 °F 21.2 °F 23% 29.80 in - North 6.9 mph - N/A   Clear
6:00 AM 57.2 °F 19.4 °F 23% 29.80 in - North 4.6 mph - N/A   Clear
7:00 AM 55.4 °F 21.2 °F 26% 29.83 in - NE 4.6 mph - N/A   Clear
8:00 AM 62 °F 32 °F 21% 29.82 in 6 mi ENE 5.8 mph - -   Clear
8:00 AM 62.6 °F 32.0 °F 32% 29.80 in - ENE 5.8 mph - N/A   Clear
9:00 AM 66.2 °F 33.8 °F 30% 29.83 in - WNW 3.5 mph - N/A   Clear
10:00 AM 69.8 °F 37.4 °F 31% 29.86 in - NNW 3.5 mph - N/A   Clear
11:00 AM 75 °F 40 °F 18% 29.83 in 6 mi WNW 3.5 mph - -   Clear
11:00 AM 75.2 °F 39.2 °F 27% 29.86 in - WNW 3.5 mph - N/A   Clear
12:00 PM 80.6 °F 42.8 °F 26% 29.83 in - SW 1.2 mph - N/A   Clear
1:00 PM 82.4 °F 41.0 °F 23% 29.77 in - ESE 3.5 mph - N/A   Clear
2:00 PM 84 °F 42 °F 14% 29.73 in 6 mi ESE 6.9 mph - -  
2:00 PM 84.2 °F 42.8 °F 23% 29.74 in - ESE 6.9 mph - N/A   Clear
3:00 PM 82.4 °F 46.4 °F 28% 29.74 in - SSE 11.5 mph - N/A   Clear
4:00 PM 82.4 °F 50.0 °F 32% 29.74 in - NE 11.5 mph - N/A   Clear
5:00 PM 80 °F 52 °F 27% 29.70 in 6 mi SE 10.4 mph - -  
5:00 PM 80.6 °F 51.8 °F 37% 29.71 in - SE 10.4 mph - N/A   Clear
6:00 PM 75.2 °F 53.6 °F 47% 29.74 in - SSE 6.9 mph - N/A   Clear
7:00 PM 73.4 °F 55.4 °F 53% 29.74 in - SSE 8.1 mph - N/A   Clear
8:00 PM 72 °F 53 °F 41% 29.74 in 6 mi SSE 5.8 mph - -  
8:00 PM 71.6 °F 53.6 °F 53% 29.74 in - SSE 5.8 mph - N/A   Clear
9:00 PM 73.4 °F 51.8 °F 47% 29.77 in - SSE 8.1 mph - N/A   Clear
10:00 PM 71.6 °F 48.2 °F 43% 29.77 in - West 3.5 mph - N/A   Clear
11:00 PM 70 °F 47 °F 32% 29.76 in 6 mi West 3.5 mph - -  
11:00 PM 69.8 °F 46.4 °F 43% 29.77 in - West 3.5 mph - N/A   Clear